Skip Page Navigation
NASA JPL Caltech
NASA Logo - Jet Propulsion Laboratory + View the NASA Portal
+ Near-Earth Object (NEO) Program
Search JPL
JPL Home Earth Solar System Stars & Galaxies Technology
JPL Solar System Dynamics
BODIES ORBITS EPHEMERIDES TOOLS PHYSICAL DATA DISCOVERY FAQ SITE MAP
JPL Small-Body Database Browser
Search: [ help ]  
117329 Spencer (2004 XJ6)
Classification: Main-belt Asteroid          SPK-ID: 2117329
Ephemeris | Orbit Diagram | Orbital Elements | Physical Parameters | Discovery Circumstances ]

[ hide orbit diagram ]
Orbit Diagram
Note: Make sure you have Java enabled on your browser to see the applet. This applet is provided as a 3D orbit visualization tool. The applet was implemented using 2-body methods, and hence should not be used for determining accurate long-term trajectories (over several years or decades) or planetary encounter circumstances. For accurate long-term ephemerides, please instead use our Horizons system.
Orbit Viewer

Additional Notes: the orbits shown in the applet are color coded. The planets are white lines, and the asteroid/comet is a blue line. The bright white line indicates the portion of the orbit that is above the ecliptic plane, and the darker portion is below the ecliptic plane. Likewise for the asteroid/comet orbit, the light blue indicates the portion above the ecliptic plane, and the dark blue the portion below the ecliptic plane.

Orbit Viewer applet originally written and kindly provided by Osamu Ajiki (AstroArts), and further modified by Ron Baalke (JPL).


Orbital Elements at Epoch 2456400.5 (2013-Apr-18.0) TDB
Reference: JPL 1 (heliocentric ecliptic J2000)
 Element Value Uncertainty (1-sigma)   Units 
e .1591422862638408 1.933e-07  
a 2.433447164788658 5.2636e-08 AU
q 2.046182819481929 4.4003e-07 AU
i 6.926840684914537 1.1764e-05 deg
node 287.4536455620553 9.5758e-05 deg
peri 238.7490842295861 0.00010528 deg
M 26.54276311677668 4.0373e-05 deg
tp 2456298.270805428351
(2013-Jan-05.77080543)
0.00015432 JED
period 1386.536506537717
3.80
4.4986e-05
1.232e-07
d
yr
n .2596397558250711 8.424e-09 deg/d
Q 2.820711510095386 6.1012e-08 AU
  Orbit Determination Parameters
   # obs. used (total)      240  
   data-arc span      6432 days (17.61 yr)  
   first obs. used      1995-09-02  
   last obs. used      2013-04-12  
   planetary ephem.      DE405  
   SB-pert. ephem.      SB405-CPV-2  
   condition code      0  
   fit RMS      .52102  
   data source      ORB  
   producer      Otto Matic  
   solution date      2013-Apr-29 18:44:22  

Additional Information
 Earth MOID = 1.06384 AU 
 T_jup = 3.479 
[ show covariance matrix ]

Ephemeris | Orbit Diagram | Orbital Elements | Physical Parameters | Discovery Circumstances ]

Physical Parameter Table
Parameter Symbol Value Units Sigma Reference Notes
absolute magnitude H 15.81 mag .43455 1 autocmod 2.5c

117329 Spencer           Discovered 2004 Dec. 9 at the Jarnac Observatory.
Henry Spencer (b. 1955) is a Canadian computer scientist and small-satellite engineer. He has been a pioneer of open-source software, including C News and the "regex" pattern-matching library. He is also the keeper of the oldest surviving Usenet archives and the software architect for the MOST astronomy satellite.
NOTE: some special characters may not display properly (any characters within {} are an attempt to place the proper accent above a character)
Reference: 20060809/MPCPages.arcLast Updated: 2007-08-08

Alternate Designations
 2004 XJ6 = 2003 TU47 
Ephemeris | Orbit Diagram | Orbital Elements | Physical Parameters | Discovery Circumstances ]
ABOUT SSD CREDITS/AWARDS PRIVACY/COPYRIGHT GLOSSARY LINKS
FirstGov 2013-May-23 12:51 UT
(server date/time)  
NASA Home Page
Site Manager:   Donald K. Yeomans
Webmaster  Alan B. Chamberlin